{"data":{"norad_id":48054,"intl_designator":"2021-025N","name":"ONEWEB-0158","alt_names":[],"object_type":"PAYLOAD","status":"ACTIVE","operator":null,"country":"UK","launch_date":"2021-03-25","launch_site_code":"VOSTO","launch_vehicle":null,"mission":null,"orbit_class":"UNKNOWN","rcs_meters":null,"size_class":null,"mass_kg":null,"dimensions":null,"purposes":["comms"],"wikipedia_slug":null,"has_3d_model":false,"image_url":null,"decayed_at":null,"tle_current":{"epoch":"2026-05-25T04:46:20.438688Z","epoch_age_seconds":68354,"freshness":"FRESH","line1":"1 48054U 21025N   26145.19884767 -.00000022  00000+0 -96241-4 0  9990","line2":"2 48054  87.8949 324.7959 0001783  80.7009 279.4322 13.13467387250616","mean_motion":13.13467387,"eccentricity":0.0001783,"inclination_deg":87.8949,"raan_deg":324.7959,"arg_perigee_deg":80.7009,"mean_anomaly_deg":279.4322,"bstar":-9.6241e-5,"rev_number":25061,"period_min":109.6334796168,"perigee_km":1208.4225386404,"apogee_km":1211.1283882249,"semimajor_km":7587.9124634327,"source":"CELESTRAK","updated_at":"2026-05-25T13:38:22.389918Z"}}}